Abbeville, LA

8:44 PM CDT on July 27, 2017 (GMT -0500)
Abbeville

Weather History for KIYA - May, 2013

Change the Weather History Date:

Saturday, May 18, 2013

  Actual Average (KARA) Record (KARA)
Temperature  
Mean Temperature 80 °F -  
Max Temperature 86 °F 83 °F 94 °F (1951)
Min Temperature 75 °F 64 °F 53 °F (2002)
Cooling Degree Days 16    
Growing Degree Days 30 (Base 50)    
Moisture  
Dew Point 68 °F    
Average Humidity 67    
Maximum Humidity 84    
Minimum Humidity 46    
Precipitation  
Precipitation 0.00 in - - ()
Sea Level Pressure  
Sea Level Pressure 30.00 in    
Wind  
Wind Speed 10 mph (SSE)    
Max Wind Speed 14 mph    
Max Gust Speed 18 mph    
Visibility 10 miles    
Events      
Averages and records for this station are not official NWS values.
T = Trace of Precipitation, MM = Missing Value Source: NWS Daily Summary

Daily Weather History Graph

Daily Weather History Graph

Search for Another Location

Airport or City:

Trip Planner

Search our weather history database for the weather conditions in past years. The results will help you decide how hot, cold, wet, or windy it might be!

Date:

Astronomy

May. 18, 2013 Rise Set
Actual Time 6:13 AM CDT 7:56 PM CDT
Civil Twilight 5:46 AM CDT 8:23 PM CDT
Nautical Twilight 5:15 AM CDT 8:54 PM CDT
Astronomical Twilight 4:41 AM CDT 9:28 PM CDT
Moon 1:29 PM CDT (5/18) 1:35 AM CDT (5/18)
Length of Visible Light 14h 36m
Length of Day
13h 43m
First Quarter, 55% of the Moon is Illuminated
May 18
First Quarter
May 24
Full
May 31
Last Quarter
Jun 8
New
Jun 16
First Quarter

Hourly Weather History & Observations

Time (CDT) Temp. Heat Index Dew Point Humidity Pressure Visibility Wind Dir Wind Speed Gust Speed Precip Events Conditions
12:15 AM 77.4 °F - 70.9 °F 80% 30.01 in 10.0 mi South 10.4 mph 16.1 mph N/A   Overcast
12:35 AM 77.7 °F - 70.2 °F 77% 30.00 in 10.0 mi South 9.2 mph - N/A   Overcast
12:55 AM 77.9 °F - 70.5 °F 78% 30.00 in 10.0 mi South 9.2 mph - N/A   Overcast
1:15 AM 77.9 °F - 70.7 °F 78% 29.99 in 10.0 mi South 8.1 mph - N/A   Overcast
1:35 AM 77.9 °F - 70.0 °F 76% 29.98 in 10.0 mi South 11.5 mph - N/A   Overcast
1:55 AM 77.9 °F - 70.2 °F 77% 29.98 in 10.0 mi South 10.4 mph 16.1 mph N/A   Overcast
2:15 AM 77.9 °F - 70.2 °F 77% 29.96 in 10.0 mi South 12.7 mph 17.3 mph N/A   Overcast
2:35 AM 77.9 °F - 70.0 °F 76% 29.97 in 10.0 mi South 10.4 mph - N/A   Overcast
2:55 AM 77.9 °F - 69.4 °F 75% 29.97 in 10.0 mi South 11.5 mph - N/A   Overcast
3:15 AM 77.7 °F - 69.6 °F 76% 29.97 in 10.0 mi South 12.7 mph - N/A   Overcast
3:35 AM 77.5 °F - 69.6 °F 76% 29.97 in 10.0 mi South 8.1 mph - N/A   Overcast
3:55 AM 77.4 °F - 69.8 °F 77% 29.97 in 10.0 mi South 8.1 mph - N/A   Overcast
4:15 AM 77.5 °F - 69.6 °F 76% 29.97 in 10.0 mi South 10.4 mph 16.1 mph N/A   Overcast
4:35 AM 77.5 °F - 69.8 °F 77% 29.97 in 10.0 mi South 8.1 mph - N/A   Overcast
4:55 AM 77.4 °F - 70.0 °F 78% 29.97 in 10.0 mi South 10.4 mph - N/A   Overcast
5:15 AM 77.2 °F - 69.8 °F 78% 29.97 in 10.0 mi South 9.2 mph - N/A   Overcast
5:35 AM 77.2 °F - 69.4 °F 77% 29.98 in 10.0 mi South 6.9 mph - N/A   Overcast
5:55 AM 77.0 °F - 69.6 °F 78% 29.98 in 10.0 mi South 6.9 mph - N/A   Overcast
6:15 AM 77.0 °F - 69.8 °F 78% 29.99 in 10.0 mi South 9.2 mph - N/A   Overcast
6:55 AM 77.4 °F - 69.1 °F 76% 30.02 in 10.0 mi SSW 6.9 mph - N/A   Overcast
7:15 AM 77.4 °F - 69.3 °F 76% 30.02 in 10.0 mi SSW 8.1 mph - N/A   Overcast
7:35 AM 77.9 °F - 68.9 °F 74% 30.03 in 10.0 mi South 8.1 mph - N/A   Overcast
7:55 AM 78.3 °F - 68.9 °F 73% 30.03 in 10.0 mi South 9.2 mph - N/A   Mostly Cloudy
8:15 AM 79.7 °F - 68.5 °F 69% 30.03 in 10.0 mi South 9.2 mph - N/A   Mostly Cloudy
8:35 AM 80.4 °F 83.2 °F 68.5 °F 67% 30.03 in 10.0 mi South 12.7 mph 18.4 mph N/A   Mostly Cloudy
8:55 AM 81.9 °F 84.8 °F 68.0 °F 63% 30.04 in 10.0 mi South 11.5 mph 16.1 mph N/A   Mostly Cloudy
9:15 AM 81.5 °F 83.9 °F 66.7 °F 61% 30.04 in 10.0 mi South 11.5 mph 18.4 mph N/A   Overcast
9:35 AM 81.3 °F 83.6 °F 66.7 °F 61% 30.05 in 10.0 mi SSW 12.7 mph 16.1 mph N/A   Mostly Cloudy
9:55 AM 82.9 °F 85.6 °F 67.5 °F 59% 30.05 in 10.0 mi South 10.4 mph - N/A   Mostly Cloudy
10:15 AM 83.5 °F 86.2 °F 67.3 °F 58% 30.05 in 10.0 mi South 8.1 mph - N/A   Mostly Cloudy
10:35 AM 83.7 °F 86.5 °F 67.5 °F 58% 30.05 in 10.0 mi SSE 10.4 mph - N/A   Mostly Cloudy
10:55 AM 84.0 °F 86.5 °F 66.9 °F 56% 30.05 in 10.0 mi SSE 10.4 mph - N/A   Scattered Clouds
11:35 AM 84.9 °F 87.9 °F 67.8 °F 56% 30.05 in 10.0 mi SSE 9.2 mph 16.1 mph N/A   Mostly Cloudy
11:55 AM 85.1 °F 88.5 °F 68.4 °F 57% 30.04 in 10.0 mi South 12.7 mph 17.3 mph N/A   Mostly Cloudy
12:15 PM 84.7 °F 87.6 °F 67.5 °F 56% 30.03 in 10.0 mi South 9.2 mph - N/A   Mostly Cloudy
12:35 PM 85.1 °F 87.4 °F 66.4 °F 53% 30.03 in 10.0 mi South 12.7 mph 18.4 mph N/A   Scattered Clouds
12:55 PM 85.5 °F 87.4 °F 65.3 °F 51% 30.03 in 10.0 mi SSE 10.4 mph 16.1 mph N/A   Scattered Clouds
1:15 PM 86.0 °F 87.9 °F 65.5 °F 50% 30.03 in 10.0 mi South 12.7 mph 18.4 mph N/A   Clear
1:35 PM 86.0 °F 87.9 °F 65.5 °F 50% 30.03 in 10.0 mi South 13.8 mph 18.4 mph N/A   Clear
1:55 PM 86.9 °F 88.9 °F 65.8 °F 49% 30.03 in 10.0 mi South 12.7 mph 17.3 mph N/A   Scattered Clouds
2:15 PM 86.2 °F 88.2 °F 65.7 °F 50% 30.02 in 10.0 mi SSE 11.5 mph - N/A   Scattered Clouds
2:35 PM 86.2 °F 88.2 °F 65.5 °F 50% 30.02 in 10.0 mi South 9.2 mph - N/A   Clear
2:55 PM 86.0 °F 87.1 °F 63.9 °F 47% 30.01 in 10.0 mi SSE 11.5 mph - N/A   Clear
3:15 PM 86.4 °F 87.8 °F 64.4 °F 48% 30.00 in 10.0 mi SSE 11.5 mph - N/A   Clear
3:35 PM 86.7 °F 88.4 °F 64.8 °F 48% 30.00 in 10.0 mi SSE 11.5 mph - N/A   Clear
3:55 PM 86.4 °F 87.3 °F 63.5 °F 46% 30.00 in 10.0 mi South 11.5 mph - N/A   Clear
4:15 PM 86.2 °F 87.3 °F 64.0 °F 47% 30.00 in 10.0 mi SSE 12.7 mph - N/A   Clear
4:35 PM 85.8 °F 87.1 °F 63.9 °F 48% 30.00 in 10.0 mi South 13.8 mph - N/A   Clear
4:55 PM 85.3 °F 86.1 °F 63.1 °F 47% 30.00 in 10.0 mi SSE 12.7 mph 16.1 mph N/A   Clear
5:15 PM 85.1 °F 86.1 °F 63.1 °F 48% 30.00 in 10.0 mi SSE 11.5 mph - N/A   Clear
5:35 PM 84.6 °F 86.1 °F 64.4 °F 51% 30.00 in 10.0 mi SSE 11.5 mph - N/A   Clear
5:55 PM 84.0 °F 85.6 °F 64.4 °F 52% 30.00 in 10.0 mi SSE 10.4 mph - N/A   Clear
6:15 PM 83.1 °F 85.4 °F 66.6 °F 57% 30.00 in 10.0 mi SSE 11.5 mph - N/A   Clear
6:35 PM 82.2 °F 84.7 °F 67.3 °F 60% 29.99 in 10.0 mi SSE 8.1 mph - N/A   Clear
6:55 PM 81.5 °F 84.1 °F 67.5 °F 62% 29.99 in 10.0 mi SE 10.4 mph - N/A   Clear
7:15 PM 80.2 °F 83.0 °F 68.2 °F 67% 29.99 in 10.0 mi SSE 6.9 mph - N/A   Clear
7:35 PM 79.2 °F - 68.5 °F 70% 29.99 in 10.0 mi SSE 5.8 mph - N/A   Clear
7:55 PM 77.9 °F - 69.1 °F 74% 29.99 in 10.0 mi SE 5.8 mph - N/A   Clear
8:15 PM 77.2 °F - 69.3 °F 76% 29.99 in 10.0 mi SE 3.5 mph - N/A   Scattered Clouds
8:35 PM 76.6 °F - 70.3 °F 81% 30.00 in 10.0 mi SE 4.6 mph - N/A   Scattered Clouds
8:55 PM 76.1 °F - 70.7 °F 83% 30.00 in 10.0 mi SSE 6.9 mph - N/A   Clear
9:15 PM 76.3 °F - 70.3 °F 82% 30.00 in 10.0 mi SSE 8.1 mph - N/A   Clear
9:35 PM 76.3 °F - 70.5 °F 82% 30.00 in 10.0 mi SSE 6.9 mph - N/A   Clear
9:55 PM 76.1 °F - 70.3 °F 82% 30.00 in 10.0 mi SSE 6.9 mph - N/A   Clear
10:15 PM 75.6 °F - 70.3 °F 84% 30.00 in 10.0 mi SSE 6.9 mph - N/A   Scattered Clouds
10:35 PM 75.6 °F - 70.2 °F 83% 29.99 in 10.0 mi SSE 6.9 mph - N/A   Scattered Clouds
10:55 PM 76.5 °F - 70.5 °F 82% 29.99 in 10.0 mi SSE 10.4 mph - N/A   Mostly Cloudy
11:15 PM 76.8 °F - 70.5 °F 81% 29.99 in 10.0 mi SSE 9.2 mph - N/A   Overcast
11:35 PM 76.5 °F - 70.7 °F 82% 29.98 in 10.0 mi SE 9.2 mph - N/A   Mostly Cloudy
11:55 PM 76.3 °F - 70.5 °F 82% 29.98 in 10.0 mi SSE 8.1 mph - N/A   Scattered Clouds